Time,B instrument,Bx,By,Bz,sigma B,Ion instrument,Status,Tp_par,Tp_perp,carrot,r_sun,clat,clong,earth_he_angle,n_p,vp_x,vp_y,vp_z,vth_p_par,vth_p_perp
1980-02-10 00:52:12,-1,nan,nan,nan,nan,1,3,nan,nan,1691,0.96961313,0.96067095,66.135986,287.76099,nan,295.73,30.2425,26.6272,nan,nan
1980-02-10 03:01:48,-1,nan,nan,nan,nan,1,3,nan,nan,1691,0.96981025,0.95263547,64.92627,287.73486,nan,302.691,9.07112,25.9197,nan,nan
1980-02-10 03:45:00,-1,nan,nan,nan,nan,1,3,nan,nan,1691,0.96987718,0.94989526,64.518799,287.72583,nan,302.585,34.979,19.7961,nan,nan
1980-02-10 05:11:24,-1,nan,nan,nan,nan,1,3,nan,nan,1691,0.97000754,0.94453973,63.712158,287.70825,nan,311.744,19.2824,9.85316,nan,nan
1980-02-10 05:54:36,-1,nan,nan,nan,nan,1,3,nan,nan,1691,0.97007251,0.94186234,63.309082,287.69971,nan,315.766,19.2711,15.6745,nan,nan
1980-02-10 07:21:00,-1,nan,nan,nan,nan,1,3,nan,nan,1691,0.97020358,0.93644625,62.502197,287.68188,nan,325.067,3.91752,8.74501,nan,nan
1980-02-10 08:04:12,-1,nan,nan,nan,nan,1,3,nan,nan,1691,0.97026813,0.93376952,62.098633,287.67285,nan,324.275,11.0262,12.0218,nan,nan
1980-02-10 10:08:08,-1,nan,nan,nan,nan,1,3,nan,nan,1691,0.97045344,0.92605209,60.936768,287.64771,nan,316.114,21.8024,9.9946,nan,nan
1980-02-10 10:08:49,-1,nan,nan,nan,nan,1,3,nan,nan,1691,0.97045344,0.92605203,60.932861,287.64771,nan,315.02,23.1623,10.1604,nan,nan
1980-02-10 10:09:30,-1,nan,nan,nan,nan,1,3,nan,nan,1691,0.97045493,0.92598981,60.924805,287.64746,nan,315.862,23.556,13.3462,nan,nan
1980-02-10 10:10:11,-1,nan,nan,nan,nan,1,3,nan,nan,1691,0.97045642,0.92592764,60.920654,287.64722,nan,313.678,23.5721,12.533,nan,nan
1980-02-10 10:10:51,-1,nan,nan,nan,nan,1,3,nan,nan,1691,0.97045642,0.92592758,60.912842,287.64722,nan,316.305,21.4399,7.48939,nan,nan
1980-02-10 10:11:32,-1,nan,nan,nan,nan,1,3,nan,nan,1691,0.97045791,0.92586535,60.904785,287.64697,nan,316.39,21.0603,12.3838,nan,nan
1980-02-10 10:12:12,-1,nan,nan,nan,nan,1,3,nan,nan,1691,0.9704594,0.92580318,60.900879,287.64697,nan,318.345,23.102,11.491,nan,nan
1980-02-10 10:12:53,-1,nan,nan,nan,nan,1,3,nan,nan,1691,0.9704594,0.92580312,60.893066,287.64697,nan,317.579,22.2602,10.827,nan,nan
1980-02-10 10:13:33,-1,nan,nan,nan,nan,1,3,nan,nan,1691,0.97046089,0.9257409,60.888916,287.64673,nan,318.351,23.1461,11.6816,nan,nan
1980-02-10 10:14:14,-1,nan,nan,nan,nan,1,3,nan,nan,1691,0.97046238,0.92567873,60.880859,287.64648,nan,318.233,23.121,10.7513,nan,nan
1980-02-10 10:14:54,-1,nan,nan,nan,nan,1,3,nan,nan,1691,0.97046238,0.92567867,60.876953,287.64648,nan,316.681,23.0858,8.87646,nan,nan
1980-02-10 10:15:35,-1,nan,nan,nan,nan,1,4,nan,nan,1691,0.97046387,0.92561644,60.868896,287.64624,nan,nan,nan,nan,nan,nan
1980-02-10 10:17:40,-1,nan,nan,nan,nan,1,3,nan,nan,1691,0.97046685,0.92549199,60.848877,287.64575,nan,303.068,68.5059,11.7467,nan,nan
1980-02-10 10:18:20,-1,nan,nan,nan,nan,1,3,nan,nan,1691,0.97046834,0.92542982,60.844971,287.64575,nan,317.459,24.997,10.9708,nan,nan
1980-02-10 10:19:41,-1,nan,nan,nan,nan,1,3,nan,nan,1691,0.97046983,0.92536753,60.829102,287.64551,nan,313.279,25.3764,12.7378,nan,nan
1980-02-10 10:20:18,-1,nan,nan,nan,nan,1,3,nan,nan,1691,0.97047132,0.92530537,60.824951,287.64526,nan,315.431,23.5234,12.3911,nan,nan
1980-02-10 10:20:59,-1,nan,nan,nan,nan,1,3,nan,nan,1691,0.97047132,0.92530531,60.817139,287.64526,nan,311.839,21.9205,6.24712,nan,nan
1980-02-10 10:21:39,-1,nan,nan,nan,nan,1,3,nan,nan,1691,0.97047281,0.92524314,60.812988,287.64502,nan,317.312,23.6582,10.2691,nan,nan
1980-02-10 10:22:20,-1,nan,nan,nan,nan,1,3,nan,nan,1691,0.9704743,0.92518091,60.804932,287.64478,nan,317.77,25.2477,12.8507,nan,nan
1980-02-10 10:23:00,-1,nan,nan,nan,nan,1,3,nan,nan,1691,0.97047579,0.92511868,60.800781,287.64453,nan,320.632,20.8652,10.1149,nan,nan
1980-02-10 10:23:41,-1,nan,nan,nan,nan,1,4,nan,nan,1691,0.97047579,0.92511868,60.792969,287.64453,nan,nan,nan,nan,nan,nan
1980-02-10 10:24:21,-1,nan,nan,nan,nan,1,3,nan,nan,1691,0.97047728,0.92505646,60.785156,287.64453,nan,321.971,20.3032,10.765,nan,nan
1980-02-10 10:25:02,-1,nan,nan,nan,nan,1,3,nan,nan,1691,0.97047877,0.92499423,60.781006,287.64429,nan,320.742,20.1716,8.28027,nan,nan
1980-02-10 10:25:42,-1,nan,nan,nan,nan,1,3,nan,nan,1691,0.97047877,0.92499423,60.773193,287.64429,nan,321.208,25.172,10.8324,nan,nan
1980-02-10 10:27:03,1,0.075,7.35,-0.433333,0.316118,1,1,36712.2,38658.2,1691,0.97048175,0.92486978,60.760986,287.6438,4.78797,319.872,27.62,15.9379,24.6186,25.2626
1980-02-10 10:28:28,1,0.636364,6.82727,-1.55455,0.392492,1,1,31162.9,34129.0,1691,0.97048324,0.92480755,60.749023,287.64355,5.32924,288.316,62.3857,6.98007,22.6818,23.7367
1980-02-10 10:29:08,1,0.8,6.74545,-1.88182,0.359752,1,1,48775.5,41372.8,1691,0.97048473,0.92474532,60.740967,287.64331,4.60523,322.944,18.6458,5.8393,28.3765,26.1346
1980-02-10 10:29:49,1,0.830769,6.63077,-2.00769,0.232811,1,1,45733.4,43404.7,1691,0.97048473,0.92474532,60.737061,287.64331,4.62919,327.246,19.5544,5.75453,27.4773,26.7686
1980-02-10 10:30:29,1,0.883333,6.40833,-2.08333,0.277263,1,1,46305.2,39920.5,1691,0.97048622,0.92468309,60.729248,287.64331,5.03267,328.547,16.5295,3.24296,27.6486,25.6718
1980-02-10 11:06:11,-1,nan,nan,nan,nan,1,3,nan,nan,1691,0.97053975,0.92244303,60.397705,287.63599,nan,317.356,20.3635,3.65442,nan,nan
1980-02-10 11:06:52,1,-3.325,6.89167,-0.125,0.301961,1,1,34356.0,39931.0,1691,0.97053975,0.92244297,60.389893,287.63599,4.85663,314.498,23.9999,7.6715,23.8155,25.6751
1980-02-10 11:07:32,1,-3.36667,6.51667,-0.0833333,0.472582,1,1,40850.8,40164.1,1691,0.97054124,0.92238081,60.381836,287.63574,4.77033,314.539,18.5383,4.79827,25.9692,25.75
1980-02-10 11:08:13,1,-1.61667,6.34167,-1.69167,0.355317,1,1,55257.5,36402.4,1691,0.97054273,0.92231858,60.377686,287.6355,5.03912,320.533,15.5417,2.84814,30.2032,24.5145
1980-02-10 11:08:54,1,-1.36667,6.325,-1.79167,0.463531,1,1,40798.8,32891.8,1691,0.97054273,0.92231852,60.369873,287.6355,4.73208,322.836,18.429,1.9331,25.9526,23.3025
1980-02-10 11:09:35,1,-1.78333,6.46667,-1.60833,0.42549,1,1,47156.6,38610.5,1691,0.97054416,0.92225635,60.365723,287.63525,4.93898,323.745,15.0331,-1.28699,27.9016,25.247
1980-02-10 11:10:56,1,-0.316667,4.99167,-3.43333,0.539483,1,1,50993.1,34380.4,1691,0.97054565,0.92219406,60.349854,287.63501,5.08318,330.492,8.47115,-12.4609,29.0144,23.8239
1980-02-10 11:11:36,1,-0.00833333,4.825,-3.475,0.611975,1,1,47848.2,40773.4,1691,0.97054714,0.9221319,60.345703,287.63477,4.7878,332.004,6.38697,-15.4101,28.1054,25.9446
1980-02-10 11:12:17,1,-0.475,5.91667,-2.425,0.867067,1,1,50270.5,40072.9,1691,0.97054863,0.92206967,60.337891,287.63477,5.14808,330.237,12.8879,-9.12087,28.8081,25.7207
1980-02-10 11:12:57,1,-1.66667,6.45,-1.31667,0.325747,1,1,47087.5,37422.5,1691,0.97054863,0.92206967,60.333984,287.63477,5.30581,326.924,17.2735,-5.4021,27.8812,24.8556
1980-02-10 11:13:38,1,-1.075,6.55,-1.40833,0.522946,1,1,53570.0,39888.2,1691,0.97055012,0.92200744,60.325928,287.63452,5.74868,328.083,14.9788,-3.93289,29.7385,25.6614
1980-02-10 11:14:18,1,-1.4,6.625,-1.25,0.397125,1,1,42977.8,34326.7,1691,0.97055161,0.92194521,60.321777,287.63428,4.73492,328.702,21.321,2.3859,26.6367,23.8053
1980-02-10 11:14:59,1,-2.25,6.38333,-1.26667,0.325747,1,1,54445.6,37987.5,1691,0.97055161,0.92194521,60.313965,287.63428,5.2277,320.817,15.5069,-0.893189,29.9805,25.0425
1980-02-10 11:15:39,1,-1.86667,6.64167,-0.616667,0.512551,1,1,47571.8,36330.2,1691,0.9705531,0.92188299,60.305908,287.63403,5.03488,319.866,18.4915,2.41147,28.0242,24.4902
1980-02-10 11:17:41,1,-1.70833,6.625,-0.716667,0.504012,1,1,55145.2,37731.9,1691,0.97055608,0.92175853,60.289795,287.63354,5.13668,324.94,17.1845,2.17721,30.1725,24.9581
1980-02-10 11:18:21,1,-1.54167,6.56667,-1.43333,0.412563,1,1,48978.6,35029.5,1691,0.97055751,0.92169636,60.281982,287.63354,4.76556,323.752,19.8771,-2.61372,28.4355,24.0478
1980-02-10 11:20:22,-1,nan,nan,nan,nan,1,4,nan,nan,1691,0.97056049,0.92157191,60.261963,287.63306,nan,nan,nan,nan,nan,nan
1980-02-10 11:21:02,1,-2.52,6.84,0.36,0.241661,1,1,53089.8,42268.1,1691,0.97056198,0.92150968,60.257813,287.63281,5.13052,321.457,21.6335,8.92165,29.6049,26.4158
1980-02-10 11:21:43,1,-2.5,6.38333,-0.5,0.539804,1,1,62249.8,41762.9,1691,0.97056198,0.92150968,60.25,287.63281,4.98681,322.851,17.2283,1.08069,32.0573,26.2575
1980-02-10 11:22:24,1,-2.53333,5.75833,-1.53333,0.463906,1,1,44235.2,36182.2,1691,0.97056347,0.92144746,60.24585,287.63257,4.65751,319.847,21.7689,2.06993,27.0235,24.4402
1980-02-10 11:23:05,1,-2.30833,6.01667,-1.63333,0.37333,1,1,57165.1,42416.5,1691,0.97056496,0.92138523,60.237793,287.63232,5.20863,324.716,16.0827,0.927374,30.7202,26.4622
1980-02-10 11:23:45,1,-1.80833,6.20833,-1.34167,0.352077,1,1,58808.8,43611.8,1691,0.97056496,0.92138523,60.22998,287.63232,4.90286,326.481,18.242,-0.368439,31.1587,26.8324
1980-02-10 11:24:26,1,-1.49167,6.20833,-1.275,1.32542,1,1,46793.1,40456.6,1691,0.97056645,0.921323,60.226074,287.63232,4.50846,328.807,12.8886,-9.48202,27.7938,25.8436
1980-02-10 11:25:06,1,0.683333,4.38333,-3.25,0.424591,1,1,78679.1,57555.1,1691,0.97056794,0.92126083,60.218018,287.63208,5.84653,331.192,15.1998,-4.19861,36.0402,30.8248
1980-02-10 11:25:47,1,1.53077,4.42308,-3.35385,0.459354,1,1,63540.7,57789.8,1691,0.97056794,0.92126077,60.214111,287.63208,5.63511,338.715,8.92901,-7.9706,32.388,30.8876
1980-02-10 11:26:27,1,0.992308,5.88462,-2.27692,0.837084,1,1,74851.5,52560.2,1691,0.97056937,0.92119855,60.206055,287.63184,5.57439,337.157,17.7179,-1.11684,35.1527,29.4569
1980-02-10 11:27:08,1,-0.625,6.48333,-1.41667,0.46689,1,1,64248.6,61528.5,1691,0.97057086,0.92113638,60.201904,287.63159,5.75838,327.641,20.9948,8.45757,32.5679,31.871
1980-02-10 11:27:48,1,-2.2,5.95833,-1.49167,0.923685,1,1,57601.0,55242.5,1691,0.97057086,0.92113632,60.194092,287.63159,5.59685,314.751,15.6041,3.69838,30.8371,30.1991
1980-02-10 11:28:29,1,-1.94545,5.83636,-1.62727,0.390168,1,1,73094.6,56159.6,1691,0.97057235,0.92107409,60.186035,287.63135,5.70394,316.786,16.7743,4.38333,34.7377,30.4488
1980-02-10 11:29:09,1,0.527273,6.27273,-1.34545,1.72075,1,1,57509.7,62831.3,1691,0.97057384,0.92101192,60.181885,287.6311,6.07435,331.021,19.465,2.4852,30.8126,32.2067
1980-02-10 11:29:50,1,0.746154,6.48462,-1.74615,0.500887,1,1,73368.1,52010.2,1691,0.97057384,0.92101187,60.174072,287.6311,5.03072,328.315,15.2436,1.51268,34.8026,29.3023
1980-02-10 11:30:30,1,-0.681818,6.38182,-1.92727,0.584228,1,1,63764.1,46890.6,1691,0.97057533,0.9209497,60.170166,287.6311,5.77849,331.816,20.2944,2.44153,32.4449,27.8228
1980-02-10 11:31:11,1,-0.476923,5.56154,-2.7,1.00437,1,1,53530.1,50843.4,1691,0.97057682,0.92088747,60.162109,287.63086,5.67651,326.41,14.7246,-2.77997,29.7274,28.9718
1980-02-10 11:31:51,1,-2.94167,4.18333,-3.10833,0.965876,1,1,56252.9,64298.4,1691,0.97057682,0.92088741,60.154297,287.63086,5.8624,333.64,2.59375,-12.8636,30.4741,32.5805
1980-02-10 11:32:32,1,-3.35833,4.05833,-3.175,0.513228,1,1,68392.8,54558.0,1691,0.97057831,0.92082524,60.150146,287.63062,6.02892,330.855,14.1313,-2.36388,33.6018,30.0115
1980-02-10 11:33:12,1,-3.375,3.78333,-3.25833,0.402941,1,1,51695.3,45972.1,1691,0.9705798,0.92076302,60.14209,287.63037,5.14872,322.101,14.6391,-3.16889,29.2135,27.549
1980-02-10 11:33:53,1,-2.41667,4.60833,-3.11667,1.55838,1,1,45147.8,42387.0,1691,0.9705798,0.92076296,60.138184,287.63037,5.11671,321.652,8.63948,-6.73005,27.3008,26.453
1980-02-10 11:34:33,1,-2.51538,5.10769,-2.81538,0.556298,1,1,46394.6,42700.1,1691,0.97058129,0.92070079,60.130127,287.63013,5.50908,329.125,14.7632,-4.48614,27.6753,26.5505
1980-02-10 11:35:14,1,-1.78333,5.575,-2.58333,0.338604,1,1,65455.9,39191.0,1691,0.97058272,0.92063856,60.125977,287.62988,5.77017,331.953,15.8186,1.54985,32.8725,25.4361
1980-02-10 11:35:54,1,-1.05833,5.80833,-2.175,0.526057,1,1,46762.5,39406.5,1691,0.97058272,0.92063856,60.118164,287.62988,5.99022,335.407,21.7253,1.20435,27.7848,25.506
1980-02-10 11:36:35,1,-0.466667,6.025,-2.575,0.429308,1,1,62343.7,41535.3,1691,0.97058421,0.92057633,60.110352,287.62988,5.84871,334.555,15.9135,-0.646287,32.0815,26.1858
1980-02-10 11:37:15,1,-0.708333,5.96667,-2.375,0.291309,1,1,51245.6,44315.1,1691,0.9705857,0.92051411,60.106201,287.62964,5.99782,336.119,18.398,-0.226298,29.0862,27.0479
1980-02-10 11:37:56,1,0.253846,6.39231,-2.23846,0.358663,1,1,48311.2,41146.4,1691,0.9705857,0.92051411,60.098389,287.62964,5.71432,332.494,12.6133,-0.930081,28.2411,26.063
1980-02-10 11:38:35,1,-0.3,6.175,-2.125,0.306186,1,1,27359.0,38869.1,1691,0.97058719,0.92045188,60.094238,287.62939,5.06146,335.099,15.8854,-0.191004,21.2524,25.3314
1980-02-10 11:39:16,1,-0.784615,6.38462,-1.86154,0.754709,1,1,59977.8,43965.4,1691,0.97058868,0.92038971,60.086182,287.62915,5.88905,344.339,-37.8942,-4.49951,31.4669,26.941
1980-02-10 11:39:56,1,-0.892308,6.84615,-1.58462,0.455603,1,1,72988.1,39275.8,1691,0.97058868,0.92038965,60.082275,287.62915,6.03167,335.968,14.7133,-1.36235,34.7123,25.4636
1980-02-10 11:41:17,1,1.4,6.06667,-2.83333,0.266667,1,1,56740.6,34679.6,1691,0.97058058,1.0127873,59.985535,287.54803,5.31117,330.637,15.0383,2.76425,30.6059,23.9274
1980-02-10 11:41:58,1,0.581818,6.00909,-2.54545,0.278425,1,1,51591.7,45839.0,1691,0.97058153,1.0127479,59.981476,287.54788,6.17339,332.345,10.6011,-4.85689,29.1842,27.509
1980-02-10 11:43:11,1,-0.118182,6.14545,-2.23636,0.444061,1,1,63262.9,45375.7,1691,0.97059315,0.92020297,60.050537,287.62866,6.3892,332.162,14.2099,-0.800395,32.3171,27.3697
1980-02-10 11:43:19,1,-0.209091,6.19091,-2.09091,0.486852,1,1,56294.8,47875.6,1691,0.97059458,0.9201408,60.050293,287.62842,5.61064,330.535,13.3131,-0.604435,30.4854,28.1135
1980-02-10 11:44:00,1,-0.3,5.81818,-2.36364,0.313603,1,1,71581.1,49361.1,1691,0.97059608,0.92007858,60.042236,287.62817,6.32219,330.854,14.5575,-0.673138,34.3761,28.5463
1980-02-10 11:44:41,1,0.372727,6.28182,-2.03636,0.325246,1,1,52335.5,43754.8,1691,0.97059608,0.92007858,60.034424,287.62817,5.94511,331.641,11.5932,-0.780835,29.3938,26.8764
1980-02-10 11:45:21,1,0.215385,6.79231,-1.53077,0.443226,1,1,67876.1,44925.2,1691,0.97059757,0.92001635,60.030273,287.62793,6.04514,330.176,13.4777,-2.20049,33.4747,27.2335
1980-02-10 11:46:02,1,-0.646154,6.37692,-1.88462,0.343322,1,1,52354.5,40692.0,1691,0.97059906,0.91995412,60.022217,287.62769,5.65128,326.086,14.331,1.08616,29.3992,25.9187
1980-02-10 11:46:42,1,-1.15833,5.91667,-2.16667,0.427444,1,1,60711.8,40556.2,1691,0.97059906,0.91995412,60.018311,287.62769,5.89532,327.573,18.3256,3.93222,31.6588,25.8754
1980-02-10 11:47:23,1,-1.36667,6.11667,-2.1,0.365529,1,1,56137.7,44216.3,1691,0.97060055,0.91989189,60.010254,287.62744,5.76842,324.844,9.37162,-1.03308,30.4428,27.0178
1980-02-10 11:48:03,1,-1.10833,6.35,-1.91667,0.296625,1,1,61463.8,53962.4,1691,0.97060204,0.91982973,60.006348,287.62744,6.48053,324.464,7.7554,-2.50608,31.8543,29.8472
1980-02-10 11:48:44,1,-1.6,6.425,-1.1,0.491808,1,1,37533.7,46288.8,1691,0.97060204,0.91982967,59.998535,287.62744,5.55019,329.465,4.92625,-9.59475,24.8925,27.6437
1980-02-10 11:49:24,1,-1.56667,6.16667,-1.54167,0.692971,1,1,70884.8,47545.9,1691,0.97060353,0.91976744,59.990479,287.6272,6.63064,332.562,7.30961,-5.04432,34.2085,28.0165
1980-02-10 11:50:05,1,-2.51667,6.44167,-0.733333,0.427444,1,1,58936.2,45772.8,1691,0.97060502,0.91970527,59.986328,287.62695,6.47593,323.889,8.88149,-2.14069,31.1924,27.4892
1980-02-10 11:50:45,1,-2.475,6.30833,-1.16667,0.459921,1,1,66217.9,38486.3,1691,0.97060502,0.91970521,59.978516,287.62695,5.70444,324.425,7.28254,0.47402,33.0633,25.2064
1980-02-10 11:51:26,1,-3.25833,6.35,-0.45,0.494062,1,1,50544.0,41268.6,1691,0.97060651,0.91964298,59.974365,287.62671,6.35029,320.597,9.41493,-2.80125,28.8864,26.1016
1980-02-10 11:52:06,1,-2.74167,6.41667,-1.125,0.478568,1,1,69129.8,44824.9,1691,0.97060794,0.91958082,59.966309,287.62646,5.99961,322.047,6.58314,-0.514036,33.7824,27.203
1980-02-10 11:52:47,1,-3.30909,5.99091,-1.37273,0.266288,1,1,65961.8,46192.0,1691,0.97060794,0.91958076,59.958496,287.62646,6.45476,319.238,10.2005,-0.880642,32.9993,27.6148
1980-02-10 11:53:27,1,-3.69167,5.60833,-1.59167,0.354436,1,1,59458.7,45583.1,1691,0.97060943,0.91951859,59.954346,287.62622,6.4627,319.574,7.65514,0.0101433,31.3304,27.4321
1980-02-10 11:54:08,1,-3.59167,5.46667,-1.63333,0.294746,1,1,57453.1,38218.3,1691,0.97061092,0.91945636,59.946533,287.62622,5.66612,316.968,7.57198,0.436971,30.7974,25.1185
1980-02-10 11:54:48,1,-3.275,5.85833,-1.30833,0.486555,1,1,56028.8,44073.3,1691,0.97061092,0.9194563,59.942627,287.62622,6.17084,319.864,9.09909,0.858981,30.4133,26.974
1980-02-10 11:56:09,-1,nan,nan,nan,nan,1,4,nan,nan,1691,0.9706139,0.91933191,59.93042,287.62573,nan,nan,nan,nan,nan,nan
1980-02-10 11:57:30,1,-3.275,6.2,-0.833333,0.30127,1,1,73705.1,45883.1,1691,0.97061539,0.91926968,59.914551,287.62549,6.47078,317.977,7.24403,2.0149,34.8824,27.5223
1980-02-10 11:58:11,1,-1.53636,6.23636,-1.61818,2.08299,1,1,54815.9,39299.4,1691,0.97061688,0.91920745,59.9104,287.62524,5.92856,317.637,7.83272,-2.97189,30.0823,25.4713
1980-02-10 11:58:51,1,0.927273,5.91818,-2.26364,0.486512,1,1,64299.5,52217.2,1691,0.97061688,0.91920745,59.902588,287.62524,6.22096,328.339,9.60294,-1.49493,32.5808,29.3606
1980-02-10 11:59:32,1,-0.191667,5.81667,-2.45,0.299421,1,1,61089.5,53810.0,1691,0.97061837,0.91914523,59.898438,287.625,6.52607,320.929,7.96153,-2.60109,31.7571,29.805
1980-02-10 12:00:12,1,-0.35,6.06667,-2.38333,0.338296,1,1,81493.5,54936.1,1691,0.97061986,0.919083,59.890625,287.625,6.76128,322.856,8.08824,0.0260571,36.6792,30.1153
1980-02-10 12:00:53,1,-0.858333,6.15833,-2.05,0.64861,1,1,58441.8,50678.6,1691,0.97061986,0.919083,59.886719,287.625,5.95988,321.564,10.3467,1.38754,31.0613,28.9248
1980-02-10 12:01:33,1,-1.06923,6.53077,-1.33846,0.711778,1,1,77152.5,53461.4,1691,0.97062129,0.91902077,59.878662,287.62476,5.96528,319.282,12.1471,6.49722,35.6889,29.7083
1980-02-10 12:02:14,1,0.381818,5.60909,-2.69091,0.54727,1,1,54888.6,50848.7,1691,0.97062278,0.9189586,59.870605,287.62451,5.81389,327.773,9.06117,-2.25042,30.1023,28.9733
1980-02-10 12:02:54,1,0.183333,5.69167,-2.35,0.7139,1,1,77466.3,60782.4,1691,0.97062278,0.91895854,59.866699,287.62451,7.03006,326.21,9.82056,-1.70647,35.7614,31.6772
1980-02-10 12:03:35,1,0.558333,5.79167,-2.28333,0.720821,1,1,49681.8,46688.4,1691,0.97062427,0.91889638,59.858643,287.62427,5.41605,335.604,4.66665,-5.83295,28.6389,27.7627
1980-02-10 12:04:56,1,-0.675,6.15,-2.225,0.926238,1,1,58015.9,46894.7,1691,0.97062576,0.91883415,59.84668,287.62402,6.1544,324.162,9.53316,-1.87144,30.9479,27.824
1980-02-10 12:05:36,1,-0.116667,5.4,-2.79167,1.20298,1,1,77960.8,57680.6,1691,0.97062725,0.91877192,59.838623,287.62378,6.34399,323.9,13.2365,1.48006,35.8754,30.8583
1980-02-10 12:06:17,1,-0.541667,5.35,-3.0,0.308108,1,1,56289.8,51972.4,1691,0.97062868,0.91870975,59.834717,287.62378,6.02097,324.535,6.46393,-7.46771,30.4841,29.2917
1980-02-10 12:06:57,1,-0.261538,5.64615,-2.74615,0.468663,1,1,77064.3,58857.6,1691,0.97062868,0.9187097,59.826904,287.62378,6.86788,329.105,6.71924,-3.91518,35.6685,31.1716
1980-02-10 12:07:38,1,0.309091,6.2,-2.17273,0.746562,1,1,70915.7,50245.3,1691,0.97063017,0.91864753,59.822754,287.62354,6.12682,329.056,5.78257,-0.47121,34.216,28.8009
1980-02-10 12:08:18,1,-0.609091,5.92727,-2.09091,0.40899,1,1,82265.7,60134.4,1691,0.97063166,0.9185853,59.814697,287.62329,6.81379,327.205,12.3068,2.3383,36.8525,31.5079
1980-02-10 12:08:59,1,2.31296e-18,5.93333,-2.13333,0.403457,1,1,81197.4,64425.7,1691,0.97063166,0.9185853,59.810791,287.62329,6.86512,332.103,7.79445,-1.29224,36.6125,32.6128
1980-02-10 12:09:39,1,0.25,6.35833,-1.8,0.424182,1,1,74838.9,51611.0,1691,0.97063315,0.91852307,59.802734,287.62305,6.4122,332.302,11.6405,1.47726,35.1497,29.1897
1980-02-10 12:10:20,1,0.608333,6.4,-1.8,0.507376,1,1,63123.9,55302.0,1691,0.97063464,0.91846091,59.794678,287.6228,6.72875,333.801,9.90811,0.866193,32.2816,30.2154
1980-02-10 12:11:00,1,0.508333,6.31667,-1.95,0.516061,1,1,75218.1,50293.0,1691,0.97063607,0.91839868,59.790527,287.62256,6.29552,331.809,9.58683,0.314813,35.2386,28.8145
1980-02-10 12:11:41,1,0.158333,5.93333,-2.3,0.333646,1,1,62322.4,54672.0,1691,0.97063607,0.91839868,59.782715,287.62256,5.81849,329.989,8.48483,-2.79343,32.076,30.0428
1980-02-10 12:12:21,1,0.261538,6.07692,-2.36923,0.316415,1,1,61428.4,58153.0,1691,0.97063756,0.91833645,59.778809,287.62256,7.05722,329.578,8.47051,-4.48205,31.8451,30.9845
1980-02-10 12:13:02,1,0.6,6.0,-2.23077,0.372898,1,1,59892.8,54035.1,1691,0.97063905,0.91827428,59.770752,287.62231,6.73671,333.771,7.48851,-3.54335,31.4445,29.8673
1980-02-10 12:13:46,1,1.0,6.20833,-2.175,0.413488,1,1,66011.2,50600.5,1691,0.97063905,0.91827422,59.762939,287.62231,6.82991,321.418,23.8223,-4.25403,33.0116,28.9025
1980-02-10 12:14:26,1,1.39231,5.66923,-2.58462,0.427321,1,1,65910.3,52840.3,1691,0.97064054,0.91821206,59.758789,287.62207,6.14637,337.757,5.86567,-3.74545,32.9864,29.5353
1980-02-10 12:15:07,1,1.74167,5.00833,-3.05833,0.476751,1,1,64705.5,48968.6,1691,0.97064203,0.91814983,59.750732,287.62183,6.36654,339.027,1.36312,-9.14731,32.6835,28.4326
1980-02-10 12:15:47,1,0.483333,5.78333,-2.63333,0.33665,1,1,60824.1,47283.9,1691,0.97064203,0.91814977,59.746826,287.62183,6.6546,333.708,6.12199,-8.08139,31.6881,27.9392
1980-02-10 12:16:23,1,0.907692,5.32308,-2.93077,0.447214,1,1,75907.5,61030.7,1691,0.97064346,0.9180876,59.73877,287.62158,6.69773,331.862,2.44553,-7.34301,35.3998,31.7418
1980-02-10 12:17:04,1,0.361538,5.73846,-2.82308,0.695293,1,1,69389.5,45722.7,1691,0.97064495,0.91802543,59.734619,287.62134,5.96331,334.28,5.18649,-6.33714,33.8458,27.4741
1980-02-10 12:17:44,1,-0.0416667,5.78333,-2.65,0.651654,1,1,66201.2,54671.9,1691,0.97064495,0.91802537,59.726807,287.62134,6.6752,313.842,21.8309,-36.6147,33.0591,30.0428
1980-02-10 12:18:25,1,-0.9,6.24545,-2.05455,0.368602,1,1,54361.0,52405.5,1691,0.97064644,0.91796321,59.718994,287.62134,6.01136,323.816,7.087,-6.8207,29.9572,29.4135
1980-02-10 12:19:06,1,-0.883333,6.175,-1.875,0.695322,1,1,56618.1,58111.5,1691,0.97064793,0.91790098,59.714844,287.62109,6.86753,321.662,11.4656,-2.7046,30.5728,30.9734
1980-02-10 12:20:27,1,-0.816667,6.41667,-1.84167,0.555465,1,1,56246.9,56824.9,1691,0.97064942,0.91783875,59.702881,287.62085,6.07984,321.235,6.34573,-9.49572,30.4724,30.6286
1980-02-10 12:21:08,1,-1.47273,5.83636,-2.02727,0.947201,1,1,55594.8,54269.3,1691,0.97065085,0.91777658,59.694824,287.62061,6.30189,315.519,6.32235,-4.36453,30.2953,29.932
1980-02-10 12:21:48,1,-2.58,5.62,-1.98,0.297993,1,1,60996.5,47214.7,1691,0.97065085,0.91777653,59.690918,287.62061,6.78258,316.069,3.87444,-1.03566,31.7329,27.9188
1980-02-10 12:22:29,1,-3.06364,5.49091,-1.63636,0.443129,1,1,53401.8,48315.0,1691,0.97065234,0.91771436,59.682861,287.62036,6.72297,311.932,-1.29313,-4.28265,29.6918,28.2422
1980-02-10 12:23:09,1,-3.04545,5.77273,-1.16364,0.265355,1,1,68908.6,52587.2,1691,0.97065383,0.91765213,59.674805,287.62012,7.46792,312.652,5.32631,-1.02313,33.7283,29.4644
1980-02-10 12:23:50,1,-2.80833,6.2,-0.541667,0.567034,1,1,57194.8,51812.6,1691,0.97065383,0.91765207,59.670898,287.62012,6.77035,312.708,5.57681,0.515606,30.7281,29.2466
1980-02-10 12:24:30,1,-3.60909,5.62727,-0.736364,0.523655,1,1,60721.0,47183.4,1691,0.97065532,0.9175899,59.663086,287.62012,6.70533,311.406,2.69169,2.07604,31.6612,27.9095
1980-02-10 12:25:51,-1,nan,nan,nan,nan,1,-3,nan,nan,1691,0.97065681,0.91752768,59.651123,287.61987,nan,314.21,4.28987,-0.861851,nan,nan
1980-02-10 12:26:32,1,-27.5727,13.7182,-17.0545,6.00125,1,1,66127.3,54673.4,1691,0.97065824,0.91746551,59.643066,287.61963,7.30061,314.824,2.88006,1.4633,33.0406,30.0432
1980-02-10 12:27:52,-1,nan,nan,nan,nan,1,4,nan,nan,1691,0.97065973,0.91740322,59.631104,287.61938,nan,nan,nan,nan,nan,nan
1980-02-10 12:28:32,-1,nan,nan,nan,nan,1,4,nan,nan,1691,0.97066122,0.91734105,59.626953,287.61914,nan,nan,nan,nan,nan,nan
1980-02-10 12:29:13,-1,nan,nan,nan,nan,1,3,nan,nan,1691,0.97066271,0.91727889,59.618896,287.6189,nan,312.037,4.91966,-1.67336,nan,nan
1980-02-10 12:29:54,-1,nan,nan,nan,nan,1,3,nan,nan,1691,0.97066271,0.91727883,59.61499,287.6189,nan,317.974,6.16184,-5.4816,nan,nan